Regional Weather Roundup
Issued by NWS

Home | Current Version | Previous Version | Graphics & Text | Print | Product List | Glossary On
Versions: 1 2 3 4 5 6 7 8 9 10 11 12 13 14 15 16 17 18 19 20 21 22 23 24 25 26 27 28 29 30 31 32 33 34 35 36 37 38 39 40 41 42 43 44 45 46 47 48 49 50
000
ASUS45 KCYS 060310
RWRWY

WYOMING REGIONAL WEATHER ROUNDUP
NATIONAL WEATHER SERVICE CHEYENNE WY
900 PM MDT TUE MAY 05 2015

NOTE:  "FAIR" INDICATES FEW OR NO CLOUDS BELOW 12,000 FEET
WITH NO SIGNIFICANT WEATHER AND/OR OBSTRUCTIONS TO VISIBILITY.

WYZ001-060400-
YELLOWSTONE NATIONAL PARK

CITY           SKY/WX    TMP DP  RH WIND       PRES   REMARKS
LK YELLOWSTONE   N/A     43  35  73 CALM      29.93R
W YELLOWSTONE  NOT AVBL

$$
WYZ002>013-054>058-071-098>099-060400-
NORTHERN WYOMING

CITY           SKY/WX    TMP DP  RH WIND       PRES   REMARKS
JACKSON        CLOUDY    52  41  66 N7        29.85R
CODY           CLOUDY    57  41  54 W16G30    29.77R
GREYBULL       CLOUDY    68  42  38 S16G22    29.65R
WORLAND        MOCLDY    64  42  44 SE12      29.65R
SHERIDAN       FAIR      64  44  48 SE22G32   29.66R
BUFFALO          N/A     59  45  59 MISG      29.75R
GILLETTE       FAIR      58  48  69 SE18      29.75S
HULETT         FAIR      59  46  63 S6        29.79R
NEWCASTLE      CLOUDY    55  46  71 SE16      29.82S

$$
WYZ014>020-022>026-101>103-060400-
CENTRAL WYOMING

CITY           SKY/WX    TMP DP  RH WIND       PRES   REMARKS
BIG PINEY      CLOUDY    49  40  71 NW5       29.86R
PINEDALE       CLOUDY    48  37  66 SE3       29.88R
DUBOIS         CLOUDY    46  37  71 S3        29.87R
LANDER         FAIR      60  37  42 W9        29.70S
RIVERTON       LGT RAIN  62  39  42 E7        29.75R
CASPER         FAIR      54  44  69 E7        29.74R
DOUGLAS        FAIR      52  48  86 SE20      29.80R

$$
WYZ021-027>030-104>119-060400-
SOUTHERN WYOMING

CITY           SKY/WX    TMP DP  RH WIND       PRES   REMARKS
EVANSTON       MOCLDY    46  42  86 W3        29.88S
KEMMERER       MOCLDY    45  45 100 W9        29.88R
FORT BRIDGER   DRIZZLE   48  46  93 W8        29.90S
ROCK SPRINGS   MOCLDY    49  40  71 NW9       29.84R
DIXON          MOCLDY    52  44  73 SW10      29.83R
RAWLINS        FAIR      51  40  65 E10       29.79R
SARATOGA       FAIR      50  41  71 S9        29.80S
LARAMIE        MOCLDY    44  40  85 SE17      29.84S
CHEYENNE       LGT RAIN  47  45  93 CALM      29.85S
TORRINGTON     CLOUDY    53  51  93 SE10      29.82S
PINE BLUFFS    LGT RAIN  50  50 100 E9        29.82F

$$


USA.gov is the U.S. government's official web portal to all federal, state and local government web resources and services.